DW6277 Weather Reports


time (UTC)temp
C
wind
direction
speed
KPH
gust
KPH
rain 1hr
cm
rain 24hr
cm
rain mn
cm
humidity
%
barometer
mb
20190422000229 23 148 3.2 11.3 0.00 0.00 0.00 70 1022.5
20190421235251 23 148 1.6 9.7 0.00 0.00 0.00 69 1022.5
20190421234237 23 148 0.0 8.0 0.00 0.00 0.00 70 1022.5
20190421233255 22 148 0.0 6.4 0.00 0.00 0.00 70 1022.5
20190421232246 22 148 0.0 9.7 0.00 0.00 0.00 71 1022.5
20190421231230 21 148 1.6 9.7 0.00 0.00 0.00 73 1022.5
20190421230225 21 148 0.0 8.0 0.00 0.00 0.00 76 1022.6
20190421225204 21 148 0.0 4.8 0.00 0.00 0.00 78 1022.7
20190421224204 20 148 0.0 0.0 0.00 0.00 0.00 81 1022.6
20190421223203 20 148 0.0 1.6 0.00 0.00 0.00 81 1022.7
20190421222207 19 148 0.0 0.0 0.00 0.00 0.00 82 1022.6
20190421221132 19 148 0.0 4.8 0.00 0.00 0.00 83 1022.5
20190421220107 18 148 0.0 0.0 0.00 0.00 0.00 83 1022.3
20190421215033 18 148 0.0 0.0 0.00 0.00 0.00 84 1022.2
20190421214008 18 148 0.0 3.2 0.00 0.00 0.00 84 1022.0
20190421213008 18 148 0.0 0.0 0.00 0.00 0.00 84 1021.9
20190421212030 18 148 0.0 3.2 0.00 0.00 0.00 84 1021.7
20190421211033 18 148 0.0 0.0 0.00 0.00 0.00 85 1021.5
20190421210028 17 148 0.0 3.2 0.00 0.00 0.00 84 1021.4
20190421205045 17 148 0.0 0.0 0.00 0.00 0.00 84 1021.3
20190421204034 17 148 0.0 0.0 0.00 0.00 0.00 84 1021.3
20190421202959 18 148 0.0 0.0 0.00 0.00 0.00 83 1021.1
20190421201937 18 148 0.0 1.6 0.00 0.00 0.00 83 1021.0
20190421200922 18 148 0.0 0.0 0.00 0.00 0.00 82 1020.9
20190421195912 18 148 0.0 3.2 0.00 0.00 0.00 81 1020.8
20190421194916 19 148 0.0 0.0 0.00 0.00 0.00 80 1020.7
20190421193921 19 148 0.0 4.8 0.00 0.00 0.00 79 1020.6
20190421192931 20 148 0.0 3.2 0.00 0.00 0.00 79 1020.5
20190421191923 20 148 0.0 11.3 0.00 0.00 0.00 79 1020.5
20190421190911 20 148 0.0 8.0 0.00 0.00 0.00 78 1020.4
20190421185932 20 148 3.2 14.5 0.00 0.00 0.00 78 1020.3
20190421184916 20 148 4.8 14.5 0.00 0.00 0.00 77 1020.3
20190421183908 20 148 4.8 12.9 0.00 0.00 0.00 77 1020.3
20190421182837 20 148 4.8 12.9 0.00 0.00 0.00 77 1020.3
20190421181836 20 148 4.8 12.9 0.00 0.00 0.00 77 1020.3
20190421180808 20 148 4.8 12.9 0.00 0.00 0.00 78 1020.2
20190421175747 20 148 3.2 11.3 0.00 0.00 0.00 78 1020.3
20190421174804 20 148 1.6 12.9 0.00 0.00 0.00 78 1020.5
20190421173758 20 148 4.8 12.9 0.00 0.00 0.00 79 1020.5
20190421172723 20 148 1.6 8.0 0.00 0.00 0.00 79 1020.5
20190421171735 20 148 3.2 11.3 0.00 0.00 0.00 79 1020.5
20190421170715 20 148 3.2 11.3 0.00 0.00 0.00 79 1020.6
20190421165728 20 148 3.2 12.9 0.00 0.00 0.00 79 1020.6
20190421164741 20 148 4.8 12.9 0.00 0.00 0.00 80 1020.6
20190421163725 20 148 1.6 6.4 0.00 0.00 0.00 80 1020.7
20190421162702 20 148 4.8 12.9 0.00 0.00 0.00 80 1020.8
20190421161642 20 148 4.8 12.9 0.00 0.00 0.00 80 1020.8
20190421160639 20 148 4.8 11.3 0.00 0.00 0.00 80 1020.8
20190421155656 20 148 3.2 11.3 0.00 0.00 0.00 81 1020.9
20190421154646 20 148 1.6 12.9 0.00 0.00 0.00 81 1020.9
20190421153614 20 148 3.2 12.9 0.00 0.00 0.00 81 1021.0
20190421152621 20 148 1.6 8.0 0.00 0.00 0.00 81 1021.0
20190421151639 20 148 0.0 9.7 0.00 0.00 0.00 81 1021.0
20190421150608 20 148 1.6 9.7 0.00 0.00 0.00 81 1021.1
20190421145543 20 148 0.0 8.0 0.00 0.00 0.00 81 1021.1
20190421144512 20 148 0.0 3.2 0.00 0.00 0.00 81 1021.2
20190421143507 20 148 0.0 12.9 0.00 0.00 0.00 81 1021.3
20190421142430 20 148 3.2 12.9 0.00 0.00 0.00 81 1021.2
20190421141400 20 148 1.6 9.7 0.00 0.00 0.00 81 1021.0
20190421140339 20 148 3.2 9.7 0.00 0.00 0.00 81 1021.1
20190421135330 20 148 1.6 9.7 0.00 0.00 0.00 81 1021.0
20190421134345 20 148 0.0 8.0 0.00 0.00 0.00 81 1021.2
20190421133355 20 148 0.0 8.0 0.00 0.00 0.00 81 1021.2
20190421132416 20 148 0.0 6.4 0.00 0.00 0.00 81 1021.2
20190421131436 20 148 0.0 9.7 0.00 0.00 0.00 81 1021.3
20190421130445 20 148 0.0 6.4 0.00 0.00 0.00 81 1021.3
20190421125502 20 148 1.6 9.7 0.00 0.00 0.00 82 1021.4
20190421124511 20 148 0.0 6.4 0.00 0.00 0.00 82 1021.4
20190421123505 21 148 0.0 0.0 0.00 0.00 0.00 82 1021.4
20190421122447 21 148 0.0 0.0 0.00 0.00 0.00 82 1021.4
20190421121410 21 148 1.6 11.3 0.00 0.00 0.00 82 1021.5
20190421120412 21 148 0.0 9.7 0.00 0.00 0.00 82 1021.7
20190421115357 21 148 3.2 11.3 0.00 0.00 0.00 83 1021.8
20190421114327 21 148 1.6 9.7 0.00 0.00 0.00 83 1021.8
20190421113314 21 148 1.6 8.0 0.00 0.00 0.00 83 1021.8
20190421112250 21 148 3.2 12.9 0.00 0.00 0.00 83 1021.8
20190421111309 21 148 4.8 12.9 0.00 0.00 0.00 84 1021.8
20190421110302 21 148 3.2 12.9 0.00 0.00 0.00 84 1021.8
20190421105248 21 148 3.2 12.9 0.00 0.00 0.00 83 1021.8
20190421104242 21 148 3.2 11.3 0.00 0.00 0.00 83 1021.9
20190421103300 21 148 4.8 14.5 0.00 0.00 0.00 83 1021.9
20190421102306 21 148 4.8 14.5 0.00 0.00 0.00 83 1021.8
20190421101315 21 148 4.8 14.5 0.00 0.00 0.00 82 1021.9
20190421100330 22 148 4.8 14.5 0.00 0.00 0.00 82 1021.9
20190421095307 22 148 3.2 9.7 0.00 0.00 0.00 82 1021.8
20190421094328 22 148 4.8 11.3 0.00 0.00 0.00 81 1021.8
20190421093351 22 148 4.8 14.5 0.00 0.00 0.00 81 1021.8
20190421092335 22 148 4.8 14.5 0.00 0.00 0.00 81 1021.9
20190421091304 22 148 3.2 12.9 0.00 0.00 0.00 81 1021.8
20190421090253 22 148 6.4 12.9 0.00 0.00 0.00 80 1021.8
20190421085257 22 148 6.4 14.5 0.00 0.00 0.00 80 1021.7
20190421084227 22 148 8.0 16.1 0.00 0.00 0.00 80 1021.6
20190421083202 22 148 6.4 16.1 0.00 0.00 0.00 81 1021.7
20190421082158 22 148 8.0 16.1 0.00 0.00 0.00 81 1021.7
20190421081147 22 148 6.4 14.5 0.00 0.00 0.00 81 1021.6
20190421080151 22 148 8.0 20.9 0.00 0.00 0.00 81 1021.5
20190421075130 22 148 8.0 20.9 0.00 0.00 0.00 81 1021.4
20190421074055 22 148 8.0 19.3 0.00 0.00 0.00 80 1021.3
20190421073115 22 148 8.0 17.7 0.00 0.00 0.00 80 1021.2
20190421072123 22 148 6.4 20.9 0.00 0.00 0.00 80 1021.1
20190421071137 23 148 8.0 20.9 0.00 0.00 0.00 80 1021.1
20190421070118 23 148 9.7 17.7 0.00 0.00 0.00 79 1021.0
20190421065140 23 148 8.0 19.3 0.00 0.00 0.00 79 1021.2
20190421064115 23 148 6.4 19.3 0.00 0.00 0.00 79 1021.1
20190421063132 23 148 8.0 17.7 0.00 0.00 0.00 79 1021.1
20190421062125 23 148 6.4 20.9 0.00 0.00 0.00 79 1021.2
20190421061103 23 148 6.4 20.9 0.00 0.00 0.00 78 1021.2
20190421060049 23 148 8.0 16.1 0.00 0.00 0.00 78 1021.1
20190421055041 23 148 6.4 14.5 0.00 0.00 0.00 78 1021.1
20190421054029 23 148 6.4 17.7 0.00 0.00 0.00 78 1021.0
20190421053011 23 148 6.4 17.7 0.00 0.00 0.00 78 1021.0
20190421052011 23 148 6.4 16.1 0.00 0.00 0.00 77 1021.1
20190421050946 23 148 6.4 16.1 0.00 0.00 0.00 77 1021.0
20190421045942 23 148 8.0 17.7 0.00 0.00 0.00 76 1021.0
20190421044909 24 148 6.4 17.7 0.00 0.00 0.00 76 1021.0
20190421043914 24 151 6.4 19.3 0.00 0.00 0.00 77 1021.0
20190421042908 23 151 8.0 19.3 0.00 0.00 0.00 77 1020.9
20190421041836 24 152 6.4 17.7 0.00 0.00 0.00 76 1020.9
20190421040848 24 152 6.4 16.1 0.00 0.00 0.00 77 1020.9
20190421035811 24 152 6.4 17.7 0.00 0.00 0.00 77 1020.9
20190421034748 24 152 8.0 17.7 0.00 0.00 0.00 76 1021.0
20190421033802 24 152 6.4 16.1 0.00 0.00 0.00 77 1021.1
20190421032746 24 152 8.0 16.1 0.00 0.00 0.00 77 1021.2
20190421031727 24 152 6.4 16.1 0.00 0.00 0.00 77 1021.4
20190421030723 24 152 8.0 16.1 0.00 0.00 0.00 76 1021.5
20190421025726 25 153 4.8 12.9 0.00 0.00 0.00 75 1021.6
20190421024710 25 153 3.2 11.3 0.00 0.00 0.00 75 1021.8
20190421023642 25 153 4.8 9.7 0.00 0.00 0.00 75 1022.1
20190421022631 25 153 3.2 11.3 0.00 0.00 0.00 74 1022.4
20190421021631 25 153 4.8 11.3 0.00 0.00 0.00 73 1022.7
20190421020623 25 153 3.2 8.0 0.00 0.00 0.00 72 1022.7
20190421015613 25 153 3.2 8.0 0.00 0.00 0.00 72 1022.9
20190421014622 25 153 3.2 11.3 0.00 0.00 0.00 73 1023.0
20190421013559 25 153 4.8 11.3 0.00 0.00 0.00 73 1023.2
20190421012545 25 153 4.8 14.5 0.00 0.00 0.00 72 1023.1
20190421011552 25 153 4.8 14.5 0.00 0.00 0.00 71 1023.1
20190421010607 25 153 6.4 12.9 0.00 0.00 0.00 71 1023.1
20190421005620 25 153 4.8 17.7 0.00 0.00 0.00 70 1023.3
20190421004638 25 153 8.0 17.7 0.00 0.00 0.00 66 1023.6
20190421003653 25 153 6.4 14.5 0.00 0.00 0.00 67 1023.8
20190421002701 25 153 6.4 14.5 0.00 0.00 0.00 69 1023.8
20190421001659 25 153 6.4 12.9 0.00 0.00 0.00 69 1023.8
20190421000718 25 153 4.8 12.9 0.00 0.00 0.00 70 1023.7